Weather History for KMNM - March, 2013

Change the Weather History Date:

Monday, March 18, 2013

  Actual Average Record
Temperature  
Mean Temperature 20 °F -  
Max Temperature 30 °F 40 °F 73 °F (2012)
Min Temperature 10 °F 22 °F 2 °F (1967)
Degree Days  
Heating Degree Days 45    
Moisture  
Dew Point 20 °F    
Average Humidity 87    
Maximum Humidity 100    
Minimum Humidity 69    
Precipitation  
Precipitation 0.12 in - - ()
Sea Level Pressure  
Sea Level Pressure 29.76 in    
Wind  
Wind Speed 5 mph (ESE)    
Max Wind Speed 15 mph    
Max Gust Speed 21 mph    
Visibility 7 miles    
Events      
Averages and records for this station are not official NWS values.
T = Trace of Precipitation, MM = Missing Value Source: NWS Daily Summary

Daily Weather History Graph

Daily Weather History Graph

Search for Another Location

Airport or City:

Trip Planner

Search our weather history database for the weather conditions in past years. The results will help you decide how hot, cold, wet, or windy it might be!

Date:

Astronomy

Mar. 18, 2013 Rise Set
Actual Time 6:56 AM CDT 7:00 PM CDT
Civil Twilight 6:27 AM CDT 7:30 PM CDT
Nautical Twilight 5:53 AM CDT 8:04 PM CDT
Astronomical Twilight 5:18 AM CDT 8:39 PM CDT
Moon 10:40 AM CDT (3/18) 1:15 AM CDT (3/18)
Length of Visible Light 13h 02m
Length of Day
12h 03m
Waxing Crescent, 41% of the Moon is Illuminated
Mar 18
Waxing Crescent
Mar 19
First Quarter
Mar 27
Full
Apr 2
Last Quarter
Apr 10
New

Hourly Weather History & Observations

Time (CDT) Temp. Windchill Dew Point Humidity Pressure Visibility Wind Dir Wind Speed Gust Speed Precip Events Conditions
12:15 AM 12.2 °F - 8.6 °F 85% 30.08 in 10.0 mi Calm Calm - N/A   Clear
12:35 AM 15.8 °F - 10.4 °F 79% 30.07 in 10.0 mi Calm Calm - N/A   Clear
12:55 AM 15.8 °F 10.2 °F 10.4 °F 79% 30.06 in 10.0 mi SE 3.5 mph - N/A   Clear
1:15 AM 12.2 °F - 6.8 °F 79% 30.06 in 10.0 mi Calm Calm - N/A   Partly Cloudy
1:35 AM 12.2 °F - 8.6 °F 85% 30.05 in 10.0 mi Calm Calm - N/A   Scattered Clouds
1:55 AM 15.8 °F - 10.4 °F 79% 30.05 in 10.0 mi Calm Calm - N/A   Clear
2:15 AM 12.2 °F - 10.4 °F 92% 30.05 in 10.0 mi Calm Calm - N/A   Clear
2:35 AM 12.2 °F - 12.2 °F 100% 30.05 in 10.0 mi Calm Calm - N/A   Clear
2:55 AM 12.2 °F 6.1 °F 12.2 °F 100% 30.04 in 10.0 mi NE 3.5 mph - N/A   Clear
3:15 AM 10.4 °F 4.0 °F 10.4 °F 100% 30.02 in 10.0 mi ENE 3.5 mph - N/A   Clear
3:35 AM 14.0 °F 8.2 °F 14.0 °F 100% 30.01 in 10.0 mi ENE 3.5 mph - N/A   Clear
3:55 AM 15.8 °F - 14.0 °F 93% 30.01 in 10.0 mi Calm Calm - N/A   Clear
4:15 AM 15.8 °F 8.6 °F 12.2 °F 86% 30.00 in 10.0 mi ESE 4.6 mph - N/A   Partly Cloudy
4:35 AM 17.6 °F 12.3 °F 14.0 °F 86% 29.98 in 10.0 mi ESE 3.5 mph - N/A   Partly Cloudy
4:55 AM 17.6 °F 10.7 °F 14.0 °F 86% 29.97 in 10.0 mi ESE 4.6 mph - N/A   Partly Cloudy
5:15 AM 17.6 °F 8.2 °F 17.6 °F 100% 29.95 in 10.0 mi ESE 6.9 mph - N/A   Partly Cloudy
5:35 AM 19.4 °F 10.4 °F 17.6 °F 93% 29.96 in 10.0 mi SE 6.9 mph - N/A   Partly Cloudy
5:55 AM 21.2 °F 10.1 °F 19.4 °F 93% 29.95 in 10.0 mi SE 10.4 mph - N/A   Mostly Cloudy
6:15 AM 21.2 °F 10.9 °F 17.6 °F 86% 29.95 in 10.0 mi ESE 9.2 mph - N/A   Overcast
6:35 AM 23.0 °F 11.1 °F 17.6 °F 80% 29.94 in 10.0 mi SE 12.7 mph - N/A   Overcast
6:55 AM 23.0 °F 10.6 °F 17.6 °F 80% 29.92 in 10.0 mi SE 13.8 mph - N/A   Overcast
7:15 AM 24.8 °F 14.0 °F 21.2 °F 86% 29.92 in 10.0 mi SE 11.5 mph - N/A   Overcast
7:35 AM 24.8 °F 14.6 °F 21.2 °F 86% 29.92 in 10.0 mi SSE 10.4 mph - N/A   Overcast
7:55 AM 24.8 °F 14.0 °F 19.4 °F 80% 29.91 in 10.0 mi SE 11.5 mph - N/A   Overcast
8:15 AM 24.8 °F 14.0 °F 19.4 °F 80% 29.89 in 10.0 mi SE 11.5 mph - N/A   Overcast
8:35 AM 24.8 °F 14.0 °F 19.4 °F 80% 29.87 in 10.0 mi SE 11.5 mph - N/A   Overcast
8:55 AM 26.6 °F 15.7 °F 21.2 °F 80% 29.85 in 10.0 mi ESE 12.7 mph - N/A   Overcast
9:15 AM 26.6 °F 14.7 °F 19.4 °F 74% 29.84 in 10.0 mi SE 15.0 mph - N/A   Mostly Cloudy
9:35 AM 26.6 °F 15.2 °F 19.4 °F 74% 29.82 in 10.0 mi ESE 13.8 mph - N/A   Partly Cloudy
9:55 AM 26.6 °F 15.2 °F 21.2 °F 80% 29.81 in 10.0 mi ESE 13.8 mph - N/A   Clear
10:15 AM 26.6 °F 16.2 °F 21.2 °F 80% 29.80 in 10.0 mi ESE 11.5 mph - N/A   Partly Cloudy
10:35 AM 26.6 °F 15.7 °F 23.0 °F 86% 29.80 in 10.0 mi ESE 12.7 mph - N/A   Mostly Cloudy
10:55 AM 28.4 °F 19.7 °F 21.2 °F 74% 29.78 in 10.0 mi ESE 9.2 mph - N/A   Mostly Cloudy
11:15 AM 28.4 °F 18.5 °F 21.2 °F 74% 29.77 in 10.0 mi East 11.5 mph - N/A   Partly Cloudy
11:35 AM 28.4 °F 17.5 °F 21.2 °F 74% 29.76 in 10.0 mi ESE 13.8 mph - N/A   Mostly Cloudy
11:55 AM 28.4 °F 18.5 °F 21.2 °F 74% 29.74 in 10.0 mi ESE 11.5 mph - N/A   Mostly Cloudy
12:15 PM 28.4 °F 18.0 °F 19.4 °F 69% 29.73 in 10.0 mi ESE 12.7 mph - N/A   Overcast
12:35 PM 30.2 °F 20.2 °F 21.2 °F 69% 29.71 in 10.0 mi ESE 12.7 mph - N/A   Overcast
12:55 PM 28.4 °F 18.5 °F 19.4 °F 69% 29.71 in 10.0 mi ESE 11.5 mph - N/A   Overcast
1:15 PM 28.4 °F 18.5 °F 21.2 °F 74% 29.69 in 10.0 mi East 11.5 mph - N/A   Overcast
1:35 PM 28.4 °F 19.1 °F 19.4 °F 69% 29.67 in 10.0 mi East 10.4 mph - N/A   Mostly Cloudy
1:55 PM 28.4 °F 20.4 °F 19.4 °F 69% 29.65 in 3.0 mi East 8.1 mph - N/A   Overcast
2:15 PM 26.6 °F 16.2 °F 23.0 °F 86% 29.63 in 1.5 mi ENE 11.5 mph - N/A   Overcast
2:35 PM 26.6 °F 16.2 °F 24.8 °F 93% 29.62 in 0.8 mi East 11.5 mph - N/A   Overcast
2:55 PM 28.4 °F 19.7 °F 26.6 °F 93% 29.61 in 0.2 mi ESE 9.2 mph - N/A   Overcast
3:15 PM 26.6 °F 20.0 °F 24.8 °F 93% 29.61 in 0.2 mi ESE 5.8 mph - N/A   Overcast
3:35 PM 28.4 °F 20.4 °F 26.6 °F 93% 29.60 in 0.2 mi ESE 8.1 mph - N/A   Overcast
3:55 PM 26.6 °F 21.2 °F 26.6 °F 100% 29.60 in 0.5 mi East 4.6 mph - N/A   Overcast
4:15 PM 26.6 °F - 26.6 °F 100% 29.59 in 0.8 mi Calm Calm - 0.02 in   Overcast
4:35 PM 28.4 °F 24.6 °F 26.6 °F 93% 29.57 in 0.8 mi East 3.5 mph - 0.02 in   Overcast
4:55 PM 28.4 °F - 26.6 °F 93% 29.57 in 0.5 mi Calm Calm - 0.04 in   Overcast
5:15 PM 28.4 °F - 26.6 °F 93% 29.56 in 0.5 mi Calm Calm - 0.03 in   Overcast
5:35 PM 26.6 °F - 26.6 °F 100% 29.55 in 0.8 mi Calm Calm - 0.04 in   Overcast
5:55 PM 28.4 °F - 26.6 °F 93% 29.54 in 1.0 mi Calm Calm - 0.05 in   Overcast
6:15 PM 28.4 °F - 26.6 °F 93% 29.54 in 1.2 mi Calm Calm - 0.01 in   Overcast
6:35 PM 28.4 °F - 26.6 °F 93% 29.53 in 1.0 mi Calm Calm - 0.02 in   Overcast
6:55 PM 26.6 °F - 26.6 °F 100% 29.53 in 4.0 mi Calm Calm - 0.02 in   Overcast
7:35 PM 26.6 °F - 26.6 °F 100% 29.52 in 3.0 mi Calm Calm - N/A   Overcast
7:55 PM 26.6 °F - 26.6 °F 100% 29.52 in 3.0 mi Calm Calm - 0.01 in   Overcast
8:15 PM 26.6 °F - 24.8 °F 93% 29.51 in 5.0 mi Calm Calm - N/A   Overcast
8:35 PM 28.4 °F - 26.6 °F 93% 29.51 in 3.0 mi Calm Calm - N/A   Overcast
8:55 PM 26.6 °F - 26.6 °F 100% 29.51 in 3.0 mi Calm Calm - N/A   Overcast
9:15 PM 26.6 °F - 26.6 °F 100% 29.50 in 3.0 mi Calm Calm - N/A   Mostly Cloudy
9:35 PM 26.6 °F - 24.8 °F 93% 29.50 in 2.0 mi Calm Calm - N/A   Overcast
9:55 PM 26.6 °F - 26.6 °F 100% 29.49 in 3.0 mi Calm Calm - N/A   Overcast
10:15 PM 26.6 °F - 26.6 °F 100% 29.49 in 2.5 mi Calm Calm - N/A   Overcast
10:55 PM 26.6 °F 21.2 °F 24.8 °F 93% 29.49 in 1.8 mi WSW 4.6 mph - N/A   Overcast
11:15 PM 26.6 °F 18.2 °F 24.8 °F 93% 29.49 in 7.0 mi West 8.1 mph 17.3 mph N/A   Overcast
11:35 PM 26.6 °F 16.8 °F 23.0 °F 86% 29.49 in 8.0 mi West 10.4 mph 20.7 mph N/A   Overcast
11:55 PM 24.8 °F 13.4 °F 21.2 °F 86% 29.49 in 8.0 mi West 12.7 mph 20.7 mph N/A   Overcast